�������l�o���
Date,Time,MP-1(��Sv/h),MP-2(��Sv/h),MP-3(��Sv/h),MP-4(��Sv/h),MP-5(��Sv/h),MP-6(��Sv/h),MP-7(��Sv/h),MP-8(��Sv/h),����,����(m/s),���J
2017/10/20,00:00,0.879,1.374,0.902,1.654,1.120,0.492,0.886,0.829,�k,4.7,�L
2017/10/20,00:10,0.880,1.376,0.906,1.658,1.123,0.494,0.887,0.831,�k�k��,3.9,�L
2017/10/20,00:20,0.881,1.380,0.905,1.660,1.123,0.492,0.889,0.831,�k�k��,3.8,�L
2017/10/20,00:30,0.881,1.378,0.904,1.658,1.126,0.494,0.889,0.830,�k�k��,6.6,�L
2017/10/20,00:40,0.880,1.378,0.905,1.664,1.125,0.491,0.888,0.830,�k�k��,6.4,�L
2017/10/20,00:50,0.881,1.381,0.906,1.664,1.129,0.491,0.887,0.829,�k�k��,6.7,�L
2017/10/20,01:00,0.883,1.381,0.904,1.663,1.127,0.490,0.890,0.832,�k�k��,7.0,�L
2017/10/20,01:10,0.880,1.383,0.903,1.664,1.129,0.493,0.889,0.832,�k�k��,6.8,�L
2017/10/20,01:20,0.880,1.385,0.904,1.666,1.129,0.492,0.890,0.832,�k�k��,7.0,�L
2017/10/20,01:30,0.881,1.384,0.906,1.668,1.132,0.492,0.891,0.829,�k�k��,7.5,�L
2017/10/20,01:40,0.883,1.387,0.904,1.666,1.128,0.491,0.890,0.833,�k�k��,7.2,�L
2017/10/20,01:50,0.883,1.386,0.905,1.670,1.129,0.491,0.891,0.831,�k�k��,6.5,�L
2017/10/20,02:00,0.883,1.386,0.905,1.669,1.130,0.492,0.890,0.831,�k�k��,6.3,�L
2017/10/20,02:10,0.883,1.384,0.908,1.671,1.132,0.491,0.891,0.830,�k�k��,7.3,�L
2017/10/20,02:20,0.882,1.387,0.905,1.671,1.133,0.490,0.892,0.834,�k�k��,7.3,�L
2017/10/20,02:30,0.882,1.388,0.904,1.670,1.132,0.492,0.891,0.831,�k�k��,7.9,�L
2017/10/20,02:40,0.881,1.385,0.906,1.670,1.133,0.491,0.891,0.831,�k�k��,8.4,�L
2017/10/20,02:50,0.882,1.387,0.904,1.666,1.130,0.491,0.892,0.833,�k,7.9,�L
2017/10/20,03:00,0.883,1.384,0.908,1.668,1.127,0.492,0.889,0.830,�k,6.2,�L
2017/10/20,03:10,0.883,1.384,0.903,1.667,1.132,0.493,0.890,0.832,�k�k��,6.4,�L
2017/10/20,03:20,0.884,1.386,0.906,1.663,1.130,0.491,0.890,0.831,�k�k��,6.0,�L
2017/10/20,03:30,0.881,1.384,0.905,1.666,1.130,0.493,0.888,0.830,�k�k��,6.5,�L
2017/10/20,03:40,0.880,1.379,0.904,1.663,1.129,0.490,0.890,0.830,�k�k��,6.9,�L
2017/10/20,03:50,0.880,1.378,0.904,1.659,1.128,0.492,0.887,0.831,�k�k��,6.8,�L
2017/10/20,04:00,0.879,1.376,0.903,1.658,1.125,0.493,0.888,0.829,�k�k��,7.8,�L
2017/10/20,04:10,0.880,1.379,0.903,1.658,1.125,0.492,0.886,0.829,�k�k��,7.6,�L
2017/10/20,04:20,0.880,1.377,0.902,1.659,1.124,0.493,0.889,0.832,�k�k��,8.2,�L
2017/10/20,04:30,0.878,1.377,0.903,1.656,1.126,0.492,0.887,0.832,�k�k��,7.1,�L
2017/10/20,04:40,0.879,1.377,0.903,1.660,1.124,0.493,0.887,0.831,�k�k��,7.6,�L
2017/10/20,04:50,0.879,1.377,0.905,1.660,1.124,0.492,0.888,0.830,�k�k��,6.9,�L
2017/10/20,05:00,0.879,1.381,0.902,1.660,1.124,0.492,0.888,0.831,�k�k��,7.3,�L
2017/10/20,05:10,0.877,1.380,0.901,1.661,1.124,0.492,0.888,0.831,�k�k��,7.3,�L
2017/10/20,05:20,0.881,1.380,0.904,1.658,1.125,0.491,0.889,0.830,�k�k��,7.7,�L
2017/10/20,05:30,0.882,1.379,0.904,1.660,1.122,0.491,0.886,0.830,�k�k��,8.8,�L
2017/10/20,05:40,0.879,1.381,0.903,1.663,1.125,0.492,0.889,0.831,�k�k��,7.4,�L
2017/10/20,05:50,0.880,1.378,0.905,1.660,1.126,0.491,0.888,0.832,�k�k��,7.6,�L
2017/10/20,06:00,0.879,1.382,0.902,1.662,1.126,0.490,0.891,0.832,�k�k��,7.8,�L
2017/10/20,06:10,0.880,1.381,0.903,1.662,1.127,0.493,0.888,0.830,�k�k��,8.3,�L
2017/10/20,06:20,0.881,1.380,0.902,1.662,1.125,0.491,0.889,0.830,�k�k��,8.8,�L
2017/10/20,06:30,0.881,1.381,0.902,1.662,1.124,0.491,0.888,0.831,�k��,7.8,�L
2017/10/20,06:40,0.879,1.383,0.903,1.660,1.125,0.492,0.887,0.834,�k��,8.8,�L
2017/10/20,06:50,0.880,1.381,0.904,1.662,1.123,0.492,0.888,0.831,�k�k��,8.9,�L
2017/10/20,07:00,0.880,1.381,0.899,1.658,1.126,0.491,0.888,0.830,�k�k��,9.1,�L
2017/10/20,07:10,0.880,1.379,0.899,1.658,1.121,0.490,0.888,0.830,�k�k��,8.3,�L
2017/10/20,07:20,0.878,1.377,0.900,1.659,1.121,0.492,0.888,0.829,�k�k��,8.9,�L
2017/10/20,07:30,0.877,1.377,0.901,1.660,1.124,0.491,0.888,0.832,�k�k��,9.0,�L
2017/10/20,07:40,0.878,1.377,0.902,1.661,1.123,0.491,0.888,0.829,�k�k��,8.0,�L
2017/10/20,07:50,0.878,1.373,0.900,1.658,1.122,0.490,0.886,0.831,�k�k��,9.3,�L
2017/10/20,08:00,0.877,1.375,0.900,1.658,1.123,0.492,0.889,0.831,�k�k��,8.7,�L
2017/10/20,08:10,0.878,1.373,0.899,1.657,1.121,0.490,0.887,0.831,�k�k��,9.3,�L
2017/10/20,08:20,0.876,1.372,0.899,1.655,1.117,0.490,0.886,0.831,�k�k��,8.5,�L
2017/10/20,08:30,0.875,1.367,0.896,1.651,1.116,0.489,0.886,0.828,�k�k��,7.1,�L
2017/10/20,08:40,0.877,1.368,0.898,1.650,1.115,0.487,0.886,0.829,�k�k��,7.0,�L
2017/10/20,08:50,0.878,1.368,0.900,1.652,1.117,0.487,0.888,0.831,�k�k��,7.4,�L
2017/10/20,09:00,0.877,1.373,0.901,1.651,1.119,0.485,0.887,0.829,�k�k��,8.0,�L
2017/10/20,09:10,0.878,1.374,0.899,1.656,1.122,0.487,0.885,0.830,�k�k��,9.2,�L
2017/10/20,09:20,0.877,1.370,0.899,1.656,1.119,0.488,0.886,0.831,�k�k��,9.1,�L
2017/10/20,09:30,0.877,1.374,0.900,1.656,1.118,0.488,0.887,0.832,�k�k��,8.5,�L
2017/10/20,09:40,0.877,1.369,0.901,1.655,1.119,0.487,0.885,0.831,�k�k��,8.6,�L
2017/10/20,09:50,0.879,1.373,0.898,1.655,1.118,0.489,0.886,0.829,�k�k��,8.6,�L
2017/10/20,10:00,0.875,1.367,0.898,1.651,1.115,0.490,0.886,0.832,�k�k��,9.0,�L
2017/10/20,10:10,0.875,1.367,0.897,1.652,1.113,0.488,0.885,0.831,�k�k��,9.2,�L
2017/10/20,10:20,0.874,1.370,0.898,1.651,1.115,0.489,0.885,0.829,�k�k��,8.8,�L
2017/10/20,10:30,0.873,1.367,0.899,1.650,1.113,0.487,0.885,0.831,�k�k��,9.6,�L
2017/10/20,10:40,0.876,1.364,0.896,1.649,1.112,0.488,0.886,0.830,�k�k��,7.8,�L
2017/10/20,10:50,0.872,1.360,0.894,1.644,1.109,0.488,0.884,0.830,�k�k��,8.3,�L
2017/10/20,11:00,0.872,1.357,0.894,1.642,1.105,0.488,0.884,0.827,�k�k��,9.3,�L
2017/10/20,11:10,0.870,1.356,0.892,1.642,1.107,0.488,0.884,0.828,�k�k��,8.0,�L
2017/10/20,11:20,0.872,1.355,0.894,1.642,1.106,0.489,0.884,0.827,�k�k��,9.6,�L
2017/10/20,11:30,0.869,1.356,0.896,1.641,1.105,0.489,0.884,0.827,�k�k��,8.0,�L
2017/10/20,11:40,0.871,1.358,0.894,1.646,1.107,0.489,0.883,0.827,�k�k��,7.5,�L
2017/10/20,11:50,0.873,1.357,0.896,1.648,1.108,0.489,0.883,0.827,�k�k��,8.1,�L
2017/10/20,12:00,0.872,1.355,0.895,1.643,1.107,0.490,0.884,0.824,�k�k��,8.0,�L
2017/10/20,12:10,0.871,1.354,0.896,1.646,1.106,0.489,0.883,0.824,�k�k��,8.1,�L
2017/10/20,12:20,0.871,1.356,0.896,1.643,1.107,0.488,0.883,0.827,�k�k��,8.0,�L
2017/10/20,12:30,0.871,1.356,0.897,1.646,1.104,0.489,0.883,0.827,�k�k��,8.2,�L
2017/10/20,12:40,0.873,1.356,0.896,1.646,1.105,0.489,0.882,0.826,�k�k��,7.3,�L
2017/10/20,12:50,0.873,1.358,0.896,1.646,1.104,0.487,0.884,0.826,�k�k��,7.9,�L
2017/10/20,13:00,0.871,1.355,0.893,1.644,1.105,0.488,0.881,0.824,�k�k��,7.5,�L
2017/10/20,13:10,0.868,1.351,0.894,1.640,1.099,0.486,0.879,0.825,�k�k��,7.9,�L
2017/10/20,13:20,0.868,1.348,0.894,1.635,1.098,0.487,0.880,0.826,�k�k��,8.1,�L
2017/10/20,13:30,0.867,1.350,0.891,1.634,1.100,0.485,0.881,0.822,�k�k��,8.5,�L
2017/10/20,13:40,0.869,1.350,0.893,1.639,1.098,0.487,0.880,0.824,�k�k��,8.6,�L
2017/10/20,13:50,0.869,1.354,0.894,1.642,1.102,0.488,0.881,0.824,�k�k��,7.4,�L
2017/10/20,14:00,0.870,1.356,0.895,1.646,1.101,0.488,0.884,0.825,�k�k��,7.6,�L
2017/10/20,14:10,0.874,1.357,0.895,1.646,1.101,0.490,0.881,0.824,�k�k��,7.8,�L
2017/10/20,14:20,0.874,1.358,0.894,1.641,1.098,0.488,0.881,0.826,�k�k��,8.6,�L
2017/10/20,14:30,0.877,1.360,0.897,1.646,1.101,0.488,0.883,0.825,�k�k��,7.2,�L
2017/10/20,14:40,0.876,1.360,0.897,1.648,1.103,0.489,0.882,0.825,�k�k��,8.2,�L
2017/10/20,14:50,0.878,1.366,0.898,1.648,1.104,0.490,0.885,0.828,�k�k��,7.4,�L
2017/10/20,15:00,0.878,1.365,0.897,1.651,1.107,0.488,0.883,0.826,�k�k��,7.2,�L
2017/10/20,15:10,0.877,1.367,0.897,1.655,1.106,0.490,0.884,0.828,�k�k��,6.8,�L
2017/10/20,15:20,0.876,1.360,0.894,1.649,1.103,0.490,0.882,0.829,�k�k��,7.1,�L
2017/10/20,15:30,0.874,1.367,0.895,1.648,1.103,0.489,0.882,0.829,�k�k��,7.2,�L
2017/10/20,15:40,0.876,1.366,0.897,1.653,1.106,0.489,0.883,0.827,�k�k��,7.0,�L
2017/10/20,15:50,0.877,1.367,0.898,1.648,1.105,0.489,0.884,0.829,�k�k��,7.6,�L
2017/10/20,16:00,0.877,1.364,0.895,1.650,1.103,0.489,0.883,0.828,�k�k��,6.9,�L
2017/10/20,16:10,0.875,1.361,0.897,1.650,1.102,0.489,0.883,0.826,�k�k��,6.8,�L
2017/10/20,16:20,0.874,1.362,0.895,1.645,1.098,0.488,0.884,0.827,�k�k��,6.5,�L
2017/10/20,16:30,0.874,1.366,0.895,1.648,1.097,0.489,0.885,0.828,�k��,5.9,�L
2017/10/20,16:40,0.873,1.365,0.896,1.662,1.099,0.489,0.884,0.828,�k��,6.3,�L
2017/10/20,16:50,0.875,1.366,0.897,1.650,1.104,0.491,0.884,0.831,�k��,6.3,�L
2017/10/20,17:00,0.873,1.365,0.895,1.652,1.104,0.489,0.884,0.829,�k��,6.5,�L
2017/10/20,17:10,0.869,1.364,0.897,1.648,1.104,0.490,0.883,0.828,�k��,5.8,�L
2017/10/20,17:20,0.867,1.362,0.897,1.650,1.106,0.490,0.886,0.828,�k��,6.2,�L
2017/10/20,17:30,0.867,1.361,0.896,1.651,1.104,0.491,0.883,0.826,�k��,6.8,�L
2017/10/20,17:40,0.865,1.355,0.893,1.645,1.101,0.489,0.883,0.829,�k��,6.5,�L
2017/10/20,17:50,0.865,1.356,0.894,1.646,1.102,0.489,0.883,0.828,�k��,7.3,�L
2017/10/20,18:00,0.864,1.358,0.893,1.645,1.101,0.489,0.883,0.827,�k��,7.0,�L
2017/10/20,18:10,0.867,1.357,0.894,1.650,1.103,0.489,0.884,0.826,�k��,6.6,�L
2017/10/20,18:20,0.855,1.357,0.888,1.643,1.105,0.490,0.884,0.827,�k�k��,6.7,�L
2017/10/20,18:30,0.855,1.339,0.887,1.631,1.092,0.487,0.879,0.822,�k��,6.5,�L
2017/10/20,18:40,0.856,1.334,0.884,1.624,1.085,0.485,0.879,0.822,�k��,4.8,�L
2017/10/20,18:50,0.860,1.345,0.888,1.631,1.086,0.487,0.877,0.824,�k��,4.6,�L
2017/10/20,19:00,0.859,1.350,0.892,1.635,1.091,0.490,0.876,0.821,�k��,5.3,�L
2017/10/20,19:10,0.861,1.355,0.892,1.640,1.092,0.487,0.878,0.822,�k��,5.6,�L
2017/10/20,19:20,0.862,1.353,0.887,1.634,1.089,0.488,0.878,0.823,�k��,5.9,�L
2017/10/20,19:30,0.858,1.350,0.886,1.633,1.085,0.489,0.878,0.821,�k�k��,6.8,�L
2017/10/20,19:40,0.857,1.349,0.887,1.629,1.082,0.486,0.876,0.819,�k��,6.0,�L
2017/10/20,19:50,0.858,1.347,0.886,1.627,1.075,0.485,0.874,0.820,�k��,6.1,�L
2017/10/20,20:00,0.855,1.345,0.887,1.632,1.080,0.485,0.877,0.821,�k��,6.2,�L
2017/10/20,20:10,0.854,1.343,0.886,1.630,1.078,0.486,0.877,0.822,�k��,7.5,�L
2017/10/20,20:20,0.849,1.334,0.879,1.611,1.074,0.487,0.876,0.821,�k�k��,5.9,�L
2017/10/20,20:30,0.842,1.320,0.873,1.608,1.062,0.482,0.872,0.817,�k�k��,5.2,�L
2017/10/20,20:40,0.848,1.327,0.868,1.601,1.054,0.481,0.865,0.809,�k�k��,1.5,�L
2017/10/20,20:50,0.860,1.336,0.860,1.605,1.052,0.483,0.867,0.811,�k��,2.3,�L
2017/10/20,21:00,0.867,1.348,0.861,1.619,1.056,0.487,0.871,0.811,�k�k��,1.5,�L
2017/10/20,21:10,0.871,1.355,0.863,1.631,1.064,0.489,0.873,0.814,���k��,3.9,�L
2017/10/20,21:20,0.871,1.361,0.867,1.633,1.069,0.489,0.875,0.819,��,8.4,�L
2017/10/20,21:30,0.871,1.359,0.868,1.634,1.069,0.492,0.876,0.818,���k��,7.7,�L
2017/10/20,21:40,0.871,1.360,0.873,1.635,1.074,0.493,0.877,0.822,���k��,7.5,�L
2017/10/20,21:50,0.873,1.363,0.875,1.639,1.077,0.492,0.879,0.821,���k��,8.1,�L
2017/10/20,22:00,0.873,1.367,0.878,1.640,1.077,0.492,0.882,0.822,���k��,7.2,�L
2017/10/20,22:10,0.875,1.367,0.880,1.643,1.077,0.493,0.879,0.823,���k��,6.8,�L
2017/10/20,22:20,0.872,1.369,0.881,1.644,1.078,0.493,0.881,0.823,���k��,7.7,�L
2017/10/20,22:30,0.873,1.367,0.881,1.644,1.078,0.494,0.881,0.823,���k��,7.0,�L
2017/10/20,22:40,0.871,1.366,0.882,1.646,1.079,0.492,0.880,0.823,���k��,6.8,�L
2017/10/20,22:50,0.872,1.365,0.883,1.648,1.079,0.492,0.882,0.825,���k��,7.5,�L
2017/10/20,23:00,0.871,1.363,0.883,1.647,1.081,0.492,0.881,0.825,���k��,7.3,�L
2017/10/20,23:10,0.872,1.366,0.885,1.647,1.080,0.491,0.882,0.823,���k��,6.8,�L
2017/10/20,23:20,0.870,1.368,0.884,1.646,1.080,0.493,0.880,0.823,���k��,5.9,�L
2017/10/20,23:30,0.869,1.364,0.882,1.645,1.077,0.495,0.877,0.825,��,6.5,�L
2017/10/20,23:40,0.869,1.363,0.883,1.638,1.075,0.493,0.879,0.823,���k��,6.0,�L
2017/10/20,23:50,0.871,1.363,0.884,1.643,1.079,0.495,0.879,0.824,���k��,8.4,�L
